Location: Igri�s
(42.2144°N, 0.4320°W)
Time: 10:19:36
(UTC+00:00)

Resurs 01 Rocket - Pass Details

Date: 13 August 2020
Orbit: 635 x 644 km, 98.0° (Epoch: 18 September)

Event Time Altitude Azimuth Distance (km) Brightness Sun altitude
Exits shadow 21:25:21 15° 216° (SW) 1,693 3.7 -22.4°
Maximum altitude 21:28:03 27° 265° (W) 1,235 3.4 -22.8°
Drops below altitude 10° 21:31:50 10° 323° (NW) 2,040 5.3 -23.2°
Sets 21:34:21 0° 336° (NNW) 2,956 6.3 -23.5°
